Disclaimer

Please do not use the information listed here in-flight or in-navigation, as they are not provided to us by the airports but are provided by volunteers, so they might be outdated.

Search


Regions


Airport information page

Radio informations:
Tower (TWR) - 118.1 MHz
Automatic Terminal Information Service (ATIS) - 124.05 MHz
Approach (APP) - 123.7 MHz

Airport informations:
Latitude: 42° 41' 42.70" N
Longitude: 023° 24' 22.20" E
Elevation: 1742 feet - 531 meters
Operating hours: 24 hour operations
Operating agency: Civil government, landing fees and diplomatic clearance may be required
Timezone: UTC+2(+3DT) - Last Sunday in March to last Sunday in October
Fuel: Unknown fuel type or whether there is any fuel.

Runway information:
09/27 - 9186 x 147 feet< - >2800 x 45 meters

Recent METARs:
LBSF 221930Z 10012KT 9999 OVC012 01/M01 Q1008 NOSIG
LBSF 222000Z 10011KT 9999 OVC011 01/M01 Q1008 NOSIG
LBSF 222030Z 10012KT 9999 SCT013 OVC016 01/M01 Q1007 NOSIG

Airport on the map: